JAISAT-1

Last updated on Sun Jun 09 2024 00:03:00 GMT+0000 (Coordinated Universal Time)

1 44419U 19038F 24159.64848634 .03338349 25950-5 17433-2 0 9996 2 44419 97.6468 168.8975 0008764 203.2539 156.8354 16.20169006273709
UTC large
Height (km)
Speed (km/s)
/
Latitude / Longitude
Inclination (degrees)
Orbital Period (minutes)
Azimuth
Elevation
Range (km)
Doppler Factor

Next 0 passes for location: London (51.5072 / 0.1276)

Sorry there are no passes over London.